Flag for Gaza Strip Weather past 2 weeks in Khan Yunis, Gaza Strip

Now
73 °F

Sunny.


Feels Like: 76 °F
Forecast: 56 / 83 °F
Wind: 7 mph from North

Location: El Arish

Current Time: Apr 26, 2015 at 1:39:30 PM

Latest Report: Apr 26, 2015 at 1:00 PM


Visibility: 10 mi

Pressure: 29.98 "Hg

Humidity: 65%

Dew point: 61 °F

Location of Khan YunisLocation

Historic Weather in Khan Yunis — Graph

°F

Khan Yunis temperature yesterday

Maximum temperature yesterday: 70 °F (at 2:00 PM)
Minimum temperature yesterday: 48 °F (at 5:00 AM)
Average temperature yesterday: 60 °F

Past Weeks' High & Low Weather Summary

 TemperatureHumidityPressure
High93 °F (Apr 20, 1:00 PM)100% (Apr 12, 12:00 AM)30.30 "Hg (Apr 12, 12:00 AM)
Low48 °F (Apr 25, 5:00 AM)16% (Apr 20, 3:00 PM)29.83 "Hg (Apr 20, 6:00 PM)
Average62 °F76%30.08 "Hg
* Reported Apr 11 8:00 PM — Apr 26 12:00 Noon, Khan Yunis, Weather by CustomWeather, © 2015

Note: Actual official high and low records may vary slightly from our data, if they occured in-between our weather recording intervals... More about our weather records

Advertising

Khan Yunis weather history for previous 24 hours

 ConditionsComfort  
Time TempWeatherWind HumidityBarometerVisibility
12:00 PM
Sun, Apr 26
73 °FSunny.5 mph65%30.01 "Hg10 mi
11:00 AM70 °FSunny.5 mph78%30.01 "Hg10 mi
10:00 AM68 °FSunny.2 mph94%30.04 "Hg10 mi
9:00 AM64 °FScattered clouds.No wind100%30.04 "HgN/A
8:00 AM57 °FSunny.3 mph100%30.01 "Hg10 mi
7:00 AM48 °FSunny.5 mph100%30.01 "Hg10 mi
6:00 AM48 °FClear.3 mph100%30.01 "Hg10 mi
5:00 AM50 °FClear.2 mph100%30.01 "Hg10 mi
4:00 AM50 °FClear.2 mph100%30.01 "Hg10 mi
3:00 AM52 °FClear.2 mph100%30.04 "Hg10 mi
2:00 AM52 °FClear.2 mph100%30.04 "Hg10 mi
12:00 AM54 °FClear.No wind100%30.07 "Hg10 mi
11:00 PM
Sat, Apr 25
55 °FClear.2 mph94%30.07 "Hg10 mi
10:00 PM59 °FClear.2 mph94%30.09 "Hg10 mi
9:00 PM61 °FClear.5 mph83%30.07 "Hg10 mi
8:00 PM63 °FClear.7 mph77%30.07 "Hg10 mi
7:00 PM64 °FSunny.13 mph64%30.07 "Hg10 mi
6:00 PM66 °FSunny.14 mph60%30.07 "Hg10 mi
5:00 PM68 °FSunny.10 mph53%30.07 "Hg10 mi
4:00 PM70 °FSunny.12 mph50%30.07 "Hg10 mi
3:00 PM68 °FSunny.10 mph53%30.09 "Hg10 mi
2:00 PM70 °FSunny.12 mph46%30.12 "Hg10 mi
1:00 PM68 °FSunny.12 mph49%30.15 "Hg10 mi
Weather by CustomWeather, © 2015

See weather overviewHow to use our weather pages